Year,Month,Day,Hour,Minute,Value (Times are PST for temperature in C)
2023,05,14,09,05,20.30
2023,05,14,09,06,20.20
2023,05,14,09,07,20.20
2023,05,14,09,08,20.20
2023,05,14,09,09,20.30
2023,05,14,09,10,20.30
2023,05,14,09,11,20.30
2023,05,14,09,12,20.40
2023,05,14,09,13,20.30
2023,05,14,09,14,20.40
2023,05,14,09,15,20.40
2023,05,14,09,16,20.40
2023,05,14,09,17,20.40
2023,05,14,09,18,20.40
2023,05,14,09,19,20.40
2023,05,14,09,20,20.40
2023,05,14,09,21,20.40
2023,05,14,09,22,20.30
2023,05,14,09,23,20.30
2023,05,14,09,24,20.30
2023,05,14,09,25,20.30
2023,05,14,09,26,20.30
2023,05,14,09,27,20.20
2023,05,14,09,28,20.20
2023,05,14,09,29,20.20
2023,05,14,09,30,20.20
2023,05,14,09,31,20.20
2023,05,14,09,32,20.30
2023,05,14,09,33,20.30
2023,05,14,09,34,20.40
2023,05,14,09,35,20.50
2023,05,14,09,36,20.60
2023,05,14,09,37,20.70
2023,05,14,09,38,20.80
2023,05,14,09,39,20.90
2023,05,14,09,40,21.00
2023,05,14,09,41,21.00
2023,05,14,09,42,20.90
2023,05,14,09,43,20.90
2023,05,14,09,44,20.90
2023,05,14,09,45,20.90
2023,05,14,09,46,20.90
2023,05,14,09,47,20.90
2023,05,14,09,48,20.90
2023,05,14,09,49,20.90
2023,05,14,09,50,21.00
2023,05,14,09,51,21.00
2023,05,14,09,52,21.00
2023,05,14,09,53,21.10
2023,05,14,09,54,21.10
2023,05,14,09,55,21.20
2023,05,14,09,56,21.30
2023,05,14,09,57,21.30
2023,05,14,09,58,21.40
2023,05,14,09,59,21.60
2023,05,14,10,00,21.70
2023,05,14,10,01,21.80
2023,05,14,10,02,22.00
2023,05,14,10,03,22.10
2023,05,14,10,04,22.20
2023,05,14,10,05,22.30
2023,05,14,10,06,22.40
2023,05,14,10,07,22.50
2023,05,14,10,08,22.60
2023,05,14,10,09,22.60
2023,05,14,10,10,22.70
2023,05,14,10,11,22.70
2023,05,14,10,12,22.70
2023,05,14,10,13,22.70
2023,05,14,10,14,22.70
2023,05,14,10,15,22.80
2023,05,14,10,16,22.80
2023,05,14,10,17,22.80
2023,05,14,10,18,22.80
2023,05,14,10,19,22.80
2023,05,14,10,20,22.80
2023,05,14,10,21,22.90
2023,05,14,10,22,22.90
2023,05,14,10,23,23.00
2023,05,14,10,24,23.10
2023,05,14,10,25,23.10
2023,05,14,10,26,23.20
2023,05,14,10,27,23.30
2023,05,14,10,28,23.30
2023,05,14,10,29,23.40
2023,05,14,10,30,23.50
2023,05,14,10,31,23.60
2023,05,14,10,32,23.60
2023,05,14,10,33,23.70
2023,05,14,10,34,23.80
2023,05,14,10,35,23.90
2023,05,14,10,36,23.90
2023,05,14,10,37,23.90
2023,05,14,10,38,23.90
2023,05,14,10,39,23.90
2023,05,14,10,40,23.90
2023,05,14,10,41,23.90
2023,05,14,10,42,23.90
2023,05,14,10,43,23.90
2023,05,14,10,44,24.00
2023,05,14,10,45,24.10
2023,05,14,10,46,24.20
2023,05,14,10,47,24.30
2023,05,14,10,48,24.40
2023,05,14,10,49,24.60
2023,05,14,10,50,24.70
2023,05,14,10,51,24.80
2023,05,14,10,52,24.90
2023,05,14,10,53,25.00
2023,05,14,10,54,25.00
2023,05,14,10,55,25.10
2023,05,14,10,56,25.10
2023,05,14,10,57,25.10
2023,05,14,10,58,25.00
2023,05,14,10,59,24.90
2023,05,14,11,00,24.90
2023,05,14,11,01,24.80
2023,05,14,11,02,24.80
2023,05,14,11,03,24.80
2023,05,14,11,04,24.80
2023,05,14,11,05,24.70
2023,05,14,11,06,24.70
2023,05,14,11,07,24.70
2023,05,14,11,08,24.70
2023,05,14,11,09,24.70
2023,05,14,11,10,24.70
2023,05,14,11,11,24.70
2023,05,14,11,12,24.70
2023,05,14,11,13,24.70
2023,05,14,11,14,24.80
2023,05,14,11,15,24.80
2023,05,14,11,16,24.70
2023,05,14,11,17,24.60
2023,05,14,11,18,24.50
2023,05,14,11,19,24.40
2023,05,14,11,20,24.30
2023,05,14,11,21,24.30
2023,05,14,11,22,24.30
2023,05,14,11,23,24.20
2023,05,14,11,24,24.20
2023,05,14,11,25,24.20
2023,05,14,11,26,24.30
2023,05,14,11,27,24.30
2023,05,14,11,28,24.40
2023,05,14,11,29,24.50
2023,05,14,11,30,24.60
2023,05,14,11,31,24.70
2023,05,14,11,32,24.70
2023,05,14,11,33,24.80
2023,05,14,11,34,24.80
2023,05,14,11,35,24.80
2023,05,14,11,36,24.80
2023,05,14,11,37,24.70
2023,05,14,11,38,24.70
2023,05,14,11,39,24.60
2023,05,14,11,40,24.60
2023,05,14,11,41,24.60
2023,05,14,11,42,24.70
2023,05,14,11,43,24.70
2023,05,14,11,44,24.80
2023,05,14,11,45,24.90
2023,05,14,11,46,25.00
2023,05,14,11,47,25.10
2023,05,14,11,48,25.20
2023,05,14,11,49,25.30
2023,05,14,11,50,25.40
2023,05,14,11,51,25.50
2023,05,14,11,52,25.60
2023,05,14,11,53,25.60
2023,05,14,11,54,25.60
2023,05,14,11,55,25.70
2023,05,14,11,56,25.70
2023,05,14,11,57,25.80
2023,05,14,11,58,25.80
2023,05,14,11,59,25.90
2023,05,14,12,00,25.80
2023,05,14,12,01,25.80
2023,05,14,12,02,25.90
2023,05,14,12,03,25.90
2023,05,14,12,04,25.90
2023,05,14,12,05,25.90
2023,05,14,12,06,25.90
2023,05,14,12,07,25.90
2023,05,14,12,08,25.90
2023,05,14,12,09,25.90
2023,05,14,12,10,25.90
2023,05,14,12,11,25.90
2023,05,14,12,12,25.90
2023,05,14,12,13,25.90
2023,05,14,12,14,26.00
2023,05,14,12,15,26.00
2023,05,14,12,16,26.10
2023,05,14,12,17,26.10
2023,05,14,12,18,26.10
2023,05,14,12,19,26.10
2023,05,14,12,20,26.10
2023,05,14,12,21,26.20
2023,05,14,12,22,26.20
2023,05,14,12,23,26.30
2023,05,14,12,24,26.40
2023,05,14,12,25,26.50
2023,05,14,12,26,26.50
2023,05,14,12,27,26.60
2023,05,14,12,28,26.60
2023,05,14,12,29,26.70
2023,05,14,12,30,26.80
2023,05,14,12,31,26.80
2023,05,14,12,32,26.70
2023,05,14,12,33,26.80
2023,05,14,12,34,26.80
2023,05,14,12,35,26.80
2023,05,14,12,36,26.80
2023,05,14,12,37,26.70
2023,05,14,12,38,26.70
2023,05,14,12,39,26.70
2023,05,14,12,40,26.60
2023,05,14,12,41,26.60
2023,05,14,12,42,26.70
2023,05,14,12,43,26.70
2023,05,14,12,44,26.70
2023,05,14,12,45,26.70
2023,05,14,12,46,26.70
2023,05,14,12,47,26.70
2023,05,14,12,48,26.70
2023,05,14,12,49,26.70
2023,05,14,12,50,26.70
2023,05,14,12,51,26.60
2023,05,14,12,52,26.50
2023,05,14,12,53,26.50
2023,05,14,12,54,26.50
2023,05,14,12,55,26.40
2023,05,14,12,56,26.50
2023,05,14,12,57,26.50
2023,05,14,12,58,26.60
2023,05,14,12,59,26.60
2023,05,14,13,00,26.60
2023,05,14,13,01,26.60
2023,05,14,13,02,26.60
2023,05,14,13,03,26.60
2023,05,14,13,04,26.60
2023,05,14,13,05,26.60
2023,05,14,13,06,26.60
2023,05,14,13,07,26.60
2023,05,14,13,08,26.70
2023,05,14,13,09,26.70
2023,05,14,13,10,26.70
2023,05,14,13,11,26.70
2023,05,14,13,12,26.70
2023,05,14,13,13,26.80
2023,05,14,13,14,26.70
2023,05,14,13,15,26.60
2023,05,14,13,16,26.60
2023,05,14,13,17,26.50
2023,05,14,13,18,26.60
2023,05,14,13,19,26.60
2023,05,14,13,20,26.60
2023,05,14,13,21,26.60
2023,05,14,13,22,26.50
2023,05,14,13,23,26.50
2023,05,14,13,24,26.50
2023,05,14,13,25,26.50
2023,05,14,13,26,26.40
2023,05,14,13,27,26.50
2023,05,14,13,28,26.50
2023,05,14,13,29,26.60
2023,05,14,13,30,26.60
2023,05,14,13,31,26.70
2023,05,14,13,32,26.70
2023,05,14,13,33,26.80
2023,05,14,13,34,26.90
2023,05,14,13,35,26.90
2023,05,14,13,36,26.90
2023,05,14,13,37,26.90
2023,05,14,13,38,27.00
2023,05,14,13,39,27.00
2023,05,14,13,40,27.10
2023,05,14,13,41,27.20
2023,05,14,13,42,27.20
2023,05,14,13,43,27.20
2023,05,14,13,44,27.30
2023,05,14,13,45,27.30
2023,05,14,13,46,27.30
2023,05,14,13,47,27.30
2023,05,14,13,48,27.40
2023,05,14,13,49,27.40
2023,05,14,13,50,27.40
2023,05,14,13,51,27.50
2023,05,14,13,52,27.60
2023,05,14,13,53,27.60
2023,05,14,13,54,27.60
2023,05,14,13,55,27.60
2023,05,14,13,56,27.60
2023,05,14,13,57,27.60
2023,05,14,13,58,27.50
2023,05,14,13,59,27.50
2023,05,14,14,00,27.50
2023,05,14,14,01,27.50
2023,05,14,14,02,27.60
2023,05,14,14,03,27.60
2023,05,14,14,04,27.60
2023,05,14,14,05,27.70
2023,05,14,14,06,27.60
2023,05,14,14,07,27.60
2023,05,14,14,08,27.60
2023,05,14,14,09,27.60
2023,05,14,14,10,27.60
2023,05,14,14,11,27.70
2023,05,14,14,12,27.70
2023,05,14,14,13,27.70
2023,05,14,14,14,27.80
2023,05,14,14,15,27.80
2023,05,14,14,16,27.90
2023,05,14,14,17,28.00
2023,05,14,14,18,28.10
2023,05,14,14,19,28.20
2023,05,14,14,20,28.40
2023,05,14,14,21,28.40
2023,05,14,14,22,28.50
2023,05,14,14,23,28.60
2023,05,14,14,24,28.70
2023,05,14,14,25,28.80
2023,05,14,14,26,28.90
2023,05,14,14,27,29.00
2023,05,14,14,28,29.10
2023,05,14,14,29,29.20
2023,05,14,14,30,29.30
2023,05,14,14,31,29.30
2023,05,14,14,32,29.30
2023,05,14,14,33,29.30
2023,05,14,14,34,29.30
2023,05,14,14,35,29.30
2023,05,14,14,36,29.30
2023,05,14,14,37,29.20
2023,05,14,14,38,29.10
2023,05,14,14,39,29.00
2023,05,14,14,40,28.80
2023,05,14,14,41,28.80
2023,05,14,14,42,28.70
2023,05,14,14,43,28.70
2023,05,14,14,44,28.70
2023,05,14,14,45,28.80
2023,05,14,14,46,28.90
2023,05,14,14,47,28.90
2023,05,14,14,48,28.90
2023,05,14,14,49,28.90
2023,05,14,14,50,28.90
2023,05,14,14,51,28.90
2023,05,14,14,52,28.90
2023,05,14,14,53,29.00
2023,05,14,14,54,29.00
2023,05,14,14,55,29.10
2023,05,14,14,56,29.20
2023,05,14,14,57,29.30
2023,05,14,14,58,29.30
2023,05,14,14,59,29.30
2023,05,14,15,00,29.30
2023,05,14,15,01,29.20
2023,05,14,15,02,29.20
2023,05,14,15,03,29.20
2023,05,14,15,04,29.20
2023,05,14,15,05,29.10
2023,05,14,15,06,29.10
2023,05,14,15,07,29.10
2023,05,14,15,08,29.10
2023,05,14,15,09,29.10
2023,05,14,15,10,29.10
2023,05,14,15,11,29.10
2023,05,14,15,12,29.00
2023,05,14,15,13,29.00
2023,05,14,15,14,28.90
2023,05,14,15,15,28.90
2023,05,14,15,16,28.90
2023,05,14,15,17,28.90
2023,05,14,15,18,28.80
2023,05,14,15,19,28.80
2023,05,14,15,20,28.80
2023,05,14,15,21,28.80
2023,05,14,15,22,28.80
2023,05,14,15,23,28.80
2023,05,14,15,24,28.90
2023,05,14,15,25,28.90
2023,05,14,15,26,28.90
2023,05,14,15,27,28.90
2023,05,14,15,28,28.90
2023,05,14,15,29,28.90
2023,05,14,15,30,28.90
2023,05,14,15,31,29.00
2023,05,14,15,32,29.00
2023,05,14,15,33,29.00
2023,05,14,15,34,29.00
2023,05,14,15,35,29.00
2023,05,14,15,36,29.00
2023,05,14,15,37,29.00
2023,05,14,15,38,29.10
2023,05,14,15,39,29.10
2023,05,14,15,40,29.10
2023,05,14,15,41,29.00
2023,05,14,15,42,28.90
2023,05,14,15,43,28.80
2023,05,14,15,44,28.70
2023,05,14,15,45,28.70
2023,05,14,15,46,28.60
2023,05,14,15,47,28.60
2023,05,14,15,48,28.60
2023,05,14,15,49,28.70
2023,05,14,15,50,28.70
2023,05,14,15,51,28.70
2023,05,14,15,52,28.70
2023,05,14,15,53,28.70
2023,05,14,15,54,28.70
2023,05,14,15,55,28.80
2023,05,14,15,56,28.90
2023,05,14,15,57,29.00
2023,05,14,15,58,29.10
2023,05,14,15,59,29.10
2023,05,14,16,00,29.20
2023,05,14,16,01,29.30
2023,05,14,16,02,29.30
2023,05,14,16,03,29.40
2023,05,14,16,04,29.40
2023,05,14,16,05,29.40
2023,05,14,16,06,29.40
2023,05,14,16,07,29.50
2023,05,14,16,08,29.50
2023,05,14,16,09,29.50
2023,05,14,16,10,29.50
2023,05,14,16,11,29.50
2023,05,14,16,12,29.50
2023,05,14,16,13,29.50
2023,05,14,16,14,29.50
2023,05,14,16,15,29.50
2023,05,14,16,16,29.50
2023,05,14,16,17,29.50
2023,05,14,16,18,29.50
2023,05,14,16,19,29.60
2023,05,14,16,20,29.60
2023,05,14,16,21,29.60
2023,05,14,16,22,29.60
2023,05,14,16,23,29.60
2023,05,14,16,24,29.70
2023,05,14,16,25,29.70
2023,05,14,16,26,29.70
2023,05,14,16,27,29.80
2023,05,14,16,28,29.80
2023,05,14,16,29,29.80
2023,05,14,16,30,29.90
2023,05,14,16,31,29.90
2023,05,14,16,32,30.00
2023,05,14,16,33,30.00
2023,05,14,16,34,30.10
2023,05,14,16,35,30.00
2023,05,14,16,36,30.00
2023,05,14,16,37,29.90
2023,05,14,16,38,29.90
2023,05,14,16,39,29.80
2023,05,14,16,40,29.70
2023,05,14,16,41,29.60
2023,05,14,16,42,29.60
2023,05,14,16,43,29.60
2023,05,14,16,44,29.50
2023,05,14,16,45,29.50
2023,05,14,16,46,29.50
2023,05,14,16,47,29.50
2023,05,14,16,48,29.60
2023,05,14,16,49,29.60
2023,05,14,16,50,29.60
2023,05,14,16,51,29.60
2023,05,14,16,52,29.60
2023,05,14,16,53,29.60
2023,05,14,16,54,29.50
2023,05,14,16,55,29.50
2023,05,14,16,56,29.50
2023,05,14,16,57,29.50
2023,05,14,16,58,29.50
2023,05,14,16,59,29.40
2023,05,14,17,00,29.40
2023,05,14,17,01,29.40
2023,05,14,17,02,29.40
2023,05,14,17,03,29.30
2023,05,14,17,04,29.30
2023,05,14,17,05,29.30
2023,05,14,17,06,29.30
2023,05,14,17,07,29.40
2023,05,14,17,08,29.40
2023,05,14,17,09,29.40
2023,05,14,17,10,29.50
2023,05,14,17,11,29.50
2023,05,14,17,12,29.60
2023,05,14,17,13,29.60
2023,05,14,17,14,29.60
2023,05,14,17,15,29.70
2023,05,14,17,16,29.70
2023,05,14,17,17,29.80
2023,05,14,17,18,29.80
2023,05,14,17,19,29.80
2023,05,14,17,20,29.80
2023,05,14,17,21,29.80
2023,05,14,17,22,29.90
2023,05,14,17,23,29.90
2023,05,14,17,24,29.90
2023,05,14,17,25,30.00
2023,05,14,17,26,30.00
2023,05,14,17,27,30.10
2023,05,14,17,28,30.10
2023,05,14,17,29,30.10
2023,05,14,17,30,30.20
2023,05,14,17,31,30.20
2023,05,14,17,32,30.20
2023,05,14,17,33,30.20
2023,05,14,17,34,30.20
2023,05,14,17,35,30.20
2023,05,14,17,36,30.20
2023,05,14,17,37,30.20
2023,05,14,17,38,30.20
2023,05,14,17,39,30.20
2023,05,14,17,40,30.10
2023,05,14,17,41,30.10
2023,05,14,17,42,30.10
2023,05,14,17,43,30.00
2023,05,14,17,44,30.00
2023,05,14,17,45,30.00
2023,05,14,17,46,29.90
2023,05,14,17,47,29.90
2023,05,14,17,48,29.90
2023,05,14,17,49,29.80
2023,05,14,17,50,29.80
2023,05,14,17,51,29.70
2023,05,14,17,52,29.70
2023,05,14,17,53,29.70
2023,05,14,17,54,29.70
2023,05,14,17,55,29.80
2023,05,14,17,56,29.80
2023,05,14,17,57,29.80
2023,05,14,17,58,29.80
2023,05,14,17,59,29.90
2023,05,14,18,00,29.90
2023,05,14,18,01,30.00
2023,05,14,18,02,30.00
2023,05,14,18,03,30.10
2023,05,14,18,04,30.10
2023,05,14,18,05,30.20
2023,05,14,18,06,30.20
2023,05,14,18,07,30.30
2023,05,14,18,08,30.30
2023,05,14,18,09,30.40
2023,05,14,18,10,30.40
2023,05,14,18,11,30.50
2023,05,14,18,12,30.60
2023,05,14,18,13,30.60
2023,05,14,18,14,30.70
2023,05,14,18,15,30.80
2023,05,14,18,16,30.80
2023,05,14,18,17,30.90
2023,05,14,18,18,31.00
2023,05,14,18,19,31.00
2023,05,14,18,20,31.10
2023,05,14,18,21,31.10
2023,05,14,18,22,31.20
2023,05,14,18,23,31.20
2023,05,14,18,24,31.20
2023,05,14,18,25,31.30
2023,05,14,18,26,31.30
2023,05,14,18,27,31.40
2023,05,14,18,28,31.40
2023,05,14,18,29,31.40
2023,05,14,18,30,31.40
2023,05,14,18,31,31.40
2023,05,14,18,32,31.40
2023,05,14,18,33,31.40
2023,05,14,18,34,31.40
2023,05,14,18,35,31.40
2023,05,14,18,36,31.40
2023,05,14,18,37,31.40
2023,05,14,18,38,31.30
2023,05,14,18,39,31.30
2023,05,14,18,40,31.30
2023,05,14,18,41,31.30
2023,05,14,18,42,31.30
2023,05,14,18,43,31.30
2023,05,14,18,44,31.30
2023,05,14,18,45,31.30
2023,05,14,18,46,31.30
2023,05,14,18,47,31.30
2023,05,14,18,48,31.20
2023,05,14,18,49,31.20
2023,05,14,18,50,31.20
2023,05,14,18,51,31.20
2023,05,14,18,52,31.20
2023,05,14,18,53,31.20
2023,05,14,18,54,31.20
2023,05,14,18,55,31.20
2023,05,14,18,56,31.20
2023,05,14,18,57,31.20
2023,05,14,18,58,31.20
2023,05,14,18,59,31.20
2023,05,14,19,00,31.20
2023,05,14,19,01,31.20
2023,05,14,19,02,31.20
2023,05,14,19,03,31.10
2023,05,14,19,04,31.10
2023,05,14,19,05,31.10
2023,05,14,19,06,31.00
2023,05,14,19,07,31.00
2023,05,14,19,08,30.90
2023,05,14,19,09,30.90
2023,05,14,19,10,30.90
2023,05,14,19,11,30.80
2023,05,14,19,12,30.80
2023,05,14,19,13,30.70
2023,05,14,19,14,30.60
2023,05,14,19,15,30.60
2023,05,14,19,16,30.50
2023,05,14,19,17,30.50
2023,05,14,19,18,30.40
2023,05,14,19,19,30.40
2023,05,14,19,20,30.30
2023,05,14,19,21,30.30
2023,05,14,19,22,30.20
2023,05,14,19,23,30.20
2023,05,14,19,24,30.10
2023,05,14,19,25,30.10
2023,05,14,19,26,30.00
2023,05,14,19,27,30.00
2023,05,14,19,28,29.90
2023,05,14,19,29,29.90
2023,05,14,19,30,29.90
2023,05,14,19,31,29.90
2023,05,14,19,32,29.90
2023,05,14,19,33,29.80
2023,05,14,19,34,29.80
2023,05,14,19,35,29.70
2023,05,14,19,36,29.70
2023,05,14,19,37,29.70
2023,05,14,19,38,29.70
2023,05,14,19,39,29.70
2023,05,14,19,40,29.70
2023,05,14,19,41,29.70
2023,05,14,19,42,29.70
2023,05,14,19,43,29.70
2023,05,14,19,44,29.60
2023,05,14,19,45,29.60
2023,05,14,19,46,29.60
2023,05,14,19,47,29.60
2023,05,14,19,48,29.60
2023,05,14,19,49,29.50
2023,05,14,19,50,29.50
2023,05,14,19,51,29.40
2023,05,14,19,52,29.40
2023,05,14,19,53,29.40
2023,05,14,19,54,29.40
2023,05,14,19,55,29.30
2023,05,14,19,56,29.30
2023,05,14,19,57,29.30
2023,05,14,19,58,29.30
2023,05,14,19,59,29.20
2023,05,14,20,00,29.20
2023,05,14,20,01,29.20
2023,05,14,20,02,29.10
2023,05,14,20,03,29.10
2023,05,14,20,04,29.00
2023,05,14,20,05,29.00
2023,05,14,20,06,28.90
2023,05,14,20,07,28.80
2023,05,14,20,08,28.80
2023,05,14,20,09,28.70
2023,05,14,20,10,28.60
2023,05,14,20,11,28.60
2023,05,14,20,12,28.50
2023,05,14,20,13,28.40
2023,05,14,20,14,28.40
2023,05,14,20,15,28.30
2023,05,14,20,16,28.20
2023,05,14,20,17,28.10
2023,05,14,20,18,28.10
2023,05,14,20,19,27.90
2023,05,14,20,20,27.80
2023,05,14,20,21,27.70
2023,05,14,20,22,27.70
2023,05,14,20,23,27.60
2023,05,14,20,24,27.50
2023,05,14,20,25,27.40
2023,05,14,20,26,27.30
2023,05,14,20,27,27.30
2023,05,14,20,28,27.30
2023,05,14,20,29,27.30
2023,05,14,20,30,27.30
2023,05,14,20,31,27.30
2023,05,14,20,32,27.30
2023,05,14,20,33,27.30
2023,05,14,20,34,27.30
2023,05,14,20,35,27.30
2023,05,14,20,36,27.30
